sat.trackr.live / text

‹ back to catalog

HAWK-7B

NORAD 56193 · 2023-054R

PAYLOAD ACTIVE UNKNOWN

§ Identity

Operator
Country
US
Launch date
2023-04-15
Launch site
AFWTR
Launch vehicle
Mass (kg)
RCS (m²)

Purposes: tech_demo

External: N2YO · Heavens-Above · Gunter

§ Orbital elements

Epoch: 2026-09-19T11:45:34.464672Z

Period
94.23 min
Inclination
97.2563°
Eccentricity
0.0003793
Mean motion
15.28208695 rev/d
Perigee alt
478.6 km
Apogee alt
483.8 km
Semi-major
6,859.3 km
B*
1.2187e-4
RAAN
145.7047°
Arg perigee
81.5326°
Mean anomaly
278.6343°
Rev number
19,142

§ Raw data

HAWK-7B1 56193U 23054R   26262.48998223  .00003278  00000+0  12187-3 0  99922 56193  97.2563 145.7047 0003793  81.5326 278.6343 15.28208695191429

JSON: /api/v1/satellites/56193 · /tle

For live sub-satellite position, see the globe view (requires WebGL).

§ Visibility from observer

Set your observer location to see the next 7 days of passes ≥ 10°. The values pass through the URL so the page stays shareable.

No JS? Fill the form by hand. The geolocation button needs JavaScript.